Zurück zum Katalog

IRIDIUM 33 DEB

AktivPO
NORAD 33966·DEBRIS·🇺🇸 United States

Gestartet Sep 14, 1997 von Baikonur Cosmodrome

Loading…

Nächste Überflüge (nächste 24 Stunden)

TLE

AktuellSource: Space-Track

Epoche: Sep 14, 2026, 08:03 UTC

1 33966U 97051CB  26257.33602124  .00001006  00000-0  25150-3 0  9995
2 33966  86.3877 287.6685 0007786  20.4768 352.1190 14.50580858924364

Verfolge IRIDIUM 33 DEB in Echtzeit mit AllMySat

Download on the App Store